Home > Weather > Dijon > Past weeks

Flag for France Past Weather in Dijon, Burgundy, France — Yesterday and Last 2 Weeks

Now
57 °F

Clear.


Feels Like: 57 °F
Forecast: 51 / 70 °F
Wind: 5 mph from Northwest

Location: Dijon Airport

Current Time: Jun 26, 2016 at 3:09:41 AM

Latest Report: Jun 26, 2016 at 2:30 AM


Visibility: 10 mi

Pressure: 30.09 "Hg

Humidity: 94%

Dew Point: 55 °F

Location of DijonLocation

Past Weather in Dijon — Graph

°F

Dijon Temperature Yesterday

Maximum temperature yesterday: 72 °F (at 10:00 AM)
Minimum temperature yesterday: 61 °F (at 10:30 PM)
Average temperature yesterday: 67 °F

High & Low Weather Summary for the Past Weeks

 TemperatureHumidityPressure
High91 °F (Jun 23, 5:30 PM)100% (Jun 11, 3:00 AM)30.30 "Hg (Jun 11, 3:00 AM)
Low48 °F (Jun 20, 5:30 AM)38% (Jun 17, 4:30 PM)29.59 "Hg (Jun 15, 1:30 AM)
Average65 °F80%29.97 "Hg
* Reported Jun 11 2:00 AM — Jun 26 2:00 AM, Dijon, Weather by CustomWeather, © 2016

Note: Actual official high and low records may vary slightly from our data, if they occured in-between our weather recording intervals... More about our weather records

Advertising

Dijon Weather History for the Previous 24 Hours

Scroll right to see more
 ConditionsComfort  
Time TempWeatherWind HumidityBarometerVisibility
2:00 AM
Sun, Jun 26
59 °FClear.6 mph88%30.09 "Hg10 mi
1:30 AM59 °FClear.2 mph88%30.09 "Hg10 mi
1:00 AM59 °FClear.5 mph88%30.12 "Hg10 mi
12:30 AM63 °FPartly cloudy.3 mph77%30.12 "HgN/A
12:00 AM63 °FPartly cloudy.3 mph83%30.12 "HgN/A
11:30 PM
Sat, Jun 25
63 °FMostly cloudy.No wind83%30.12 "HgN/A
11:00 PM61 °FOvercast.2 mph88%30.09 "HgN/A
10:30 PM61 °FPartly sunny.1 mph88%30.09 "HgN/A
10:00 PM63 °FSunny.2 mph83%30.09 "Hg10 mi
9:30 PM64 °FPassing clouds.3 mph73%30.09 "HgN/A
9:00 PM68 °FPassing clouds.6 mph60%30.07 "HgN/A
8:30 PM70 °FPassing clouds.7 mph53%30.07 "HgN/A
8:00 PM70 °FBroken clouds.6 mph60%30.07 "HgN/A
7:30 PM70 °FScattered clouds.5 mph57%30.07 "HgN/A
7:00 PM70 °FBroken clouds.6 mph57%30.07 "HgN/A
6:30 PM72 °FPartly sunny.6 mph53%30.07 "HgN/A
6:00 PM70 °FScattered clouds.7 mph57%30.07 "HgN/A
5:30 PM72 °FPassing clouds.8 mph53%30.07 "HgN/A
5:00 PM70 °FPassing clouds.10 mph60%30.07 "HgN/A
4:30 PM70 °FBroken clouds.13 mph60%30.07 "HgN/A
4:00 PM68 °FPartly sunny.13 mph69%30.07 "HgN/A
3:30 PM68 °FPartly sunny.18 mph69%30.07 "HgN/A
3:00 PM66 °FPartly sunny.18 mph78%30.07 "HgN/A
2:30 PM68 °FPartly sunny.14 mph73%30.04 "HgN/A
2:00 PM66 °FBroken clouds.16 mph83%30.04 "HgN/A
1:30 PM72 °FBroken clouds.13 mph73%30.04 "HgN/A
1:00 PM70 °FBroken clouds.10 mph78%30.04 "HgN/A
12:30 PM68 °FPartly sunny.9 mph83%30.04 "HgN/A
12:00 PM66 °FBroken clouds.10 mph88%30.01 "HgN/A
11:30 AM64 °FMore clouds than sun.8 mph88%30.01 "HgN/A
11:00 AM64 °FBroken clouds.9 mph83%30.01 "HgN/A
10:30 AM70 °FBroken clouds.13 mph69%30.01 "HgN/A
10:00 AM72 °FPassing clouds.9 mph78%29.98 "HgN/A
9:30 AM70 °FScattered clouds.8 mph83%29.98 "HgN/A
9:00 AM68 °FPassing clouds.8 mph88%29.98 "HgN/A
8:30 AM66 °FPartly sunny.8 mph94%29.98 "HgN/A
8:00 AM66 °FPartly sunny.6 mph94%29.98 "HgN/A
7:30 AM64 °FPartly sunny.3 mph100%29.98 "HgN/A
7:00 AM64 °FCloudy.7 mph100%29.98 "HgN/A
6:30 AM64 °FRain. Fog.5 mph100%29.98 "Hg2 mi
6:00 AM66 °FRain. Fog.9 mph94%30.01 "Hg3 mi
5:30 AM66 °FStrong thunderstorms. Fog.5 mph94%30.01 "Hg1 mi
5:00 AM64 °FFog.2 mph100%30.01 "Hg3 mi
4:30 AM64 °FFog.3 mph100%30.01 "Hg3 mi
4:00 AM66 °FPassing clouds.3 mph94%30.01 "Hg4 mi
3:30 AM66 °FClear.3 mph94%30.01 "Hg10 mi
3:00 AM66 °FPassing clouds.3 mph100%30.01 "HgN/A
Weather by CustomWeather, © 2016

See weather overviewHow to use our weather pages